Flag for Hungary Weather past 2 weeks in Sopron, Hungary

Now
48 °F

Overcast.


Feels Like: 44 °F
Forecast: 41 / 49 °F
Wind: 9 mph from Northwest

Location: Eisenstadt

Current Time: Mar 27, 2015 at 10:36:42 PM

Latest Report: Mar 27, 2015 at 10:00 PM


Visibility: 9 mi

Pressure: 30.02 "Hg

Humidity: 59%

Dew point: 34 °F

Location of SopronLocation

Historic Weather in Sopron — Graph

°F

Sopron temperature yesterday

Maximum temperature yesterday: 64 °F (at 4:00 PM)
Minimum temperature yesterday: 46 °F (at 6:00 AM)
Average temperature yesterday: 53 °F

Past Weeks' High & Low Weather Summary

 TemperatureHumidityPressure
High64 °F (Mar 26, 4:00 PM)94% (Mar 26, 10:00 PM)30.53 "Hg (Mar 26, 10:00 PM)
Low31 °F (Mar 19, 6:00 AM)36% (Mar 18, 4:00 PM)29.70 "Hg (Mar 26, 5:00 PM)
Average45 °F68%30.13 "Hg
* Reported Mar 12 9:00 PM — Mar 27 9:00 PM, Sopron, Weather by CustomWeather, © 2015

Note: Actual official high and low records may vary slightly from our data, if they occured in-between our weather recording intervals... More about our weather records

Advertising

Sopron weather history for previous 24 hours

 ConditionsComfort  
Time TempWeatherWind HumidityBarometerVisibility
9:00 PM
Fri, Mar 27
48 °FCool.9 mph57%30.02 "HgN/A
8:00 PM48 °FCool.8 mph58%30.00 "HgN/A
7:00 PM48 °FOvercast.9 mph63%29.98 "Hg19 mi
6:00 PM49 °FCool.12 mph62%29.94 "HgN/A
5:00 PM50 °FCool.8 mph63%29.92 "HgN/A
4:00 PM49 °FOvercast.12 mph63%29.91 "Hg19 mi
3:00 PM51 °FCool.8 mph61%29.90 "HgN/A
2:00 PM50 °FCool.10 mph64%29.90 "HgN/A
1:00 PM48 °FOvercast.12 mph68%29.91 "Hg7 mi
12:00 PM48 °FCool.10 mph69%29.89 "HgN/A
11:00 AM46 °FCool.9 mph74%29.89 "HgN/A
10:00 AM45 °FLight rain. Overcast.8 mph76%29.89 "Hg7 mi
9:00 AM44 °FQuite cool.9 mph79%29.88 "HgN/A
8:00 AM46 °FCool.9 mph74%29.84 "HgN/A
7:00 AM46 °FOvercast.8 mph75%29.83 "Hg7 mi
6:00 AM46 °FLight rain. Overcast.8 mph78%29.82 "Hg6 mi
5:00 AM46 °FOvercast.9 mph75%29.80 "Hg6 mi
3:00 AM49 °FCool.6 mph71%29.78 "HgN/A
2:00 AM49 °FCool.6 mph75%29.77 "HgN/A
1:00 AM49 °FPassing clouds.5 mph80%29.76 "Hg6 mi
12:00 AM50 °FCool.6 mph84%29.75 "HgN/A
11:00 PM
Thu, Mar 26
51 °FCool.6 mph89%29.75 "HgN/A
10:00 PM53 °FLight rain. Overcast.2 mph94%29.75 "Hg6 mi
Weather by CustomWeather, © 2015

See weather overviewHow to use our weather pages